Simultaneous Nadir Overpasses (SNOs) Predictions

Prediction of SNOs between GOES-16 and NPP Satellite Orbit:

Table of predicted SNOs for the next 14.0 days since TLE Epoch: 1/21/2023
Index Date Time (GOES-16) GOES-16 Lat,Lon NPP Lat,Lon Distance(km) Time Diff (sec)
1 01/21/2023 18:18:21 0.03, -75.20 0.58, -72.70 283.56 80
2 01/23/2023 06:40:10 -0.04, -75.19 0.56, -77.98 316.94 80
3 01/24/2023 06:18:46 -0.04, -75.20 -0.44, -73.45 200.29 80
4 01/25/2023 18:40:43 0.04, -75.23 -0.74, -78.75 401.52 80
5 01/26/2023 18:24:39 0.04, -75.24 0.26, -74.21 116.42 80
6 01/28/2023 06:46:27 -0.04, -75.25 0.92, -79.48 482.07 80
7 01/29/2023 06:25:03 -0.04, -75.27 -0.08, -74.95 36.30 80
8 01/31/2023 18:28:15 0.03, -75.32 -0.08, -75.72 45.88 80
9 02/01/2023 18:12:11 0.02, -75.34 0.93, -71.18 472.94 80
10 02/03/2023 06:33:59 0.02, -75.36 0.24, -76.45 123.67 80
